Weather History for Monticello, AR

Change the Weather History Date:

Wednesday, February 13, 2013

  Actual Average Record
Temperature  
Mean Temperature 44 °F -  
Max Temperature 52 °F 54 °F 81 °F (1962)
Min Temperature 37 °F 32 °F 12 °F (1988)
Degree Days  
Heating Degree Days 20    
Moisture  
Dew Point 38 °F    
Average Humidity 79    
Maximum Humidity 96    
Minimum Humidity 59    
Precipitation  
Precipitation 0.00 in - - ()
Sea Level Pressure  
Sea Level Pressure 29.99 in    
Wind  
Wind Speed 6 mph (WNW)    
Max Wind Speed 12 mph    
Max Gust Speed -    
Visibility 10 miles    
Events Rain    
Averages and records for this station are not official NWS values.
T = Trace of Precipitation, MM = Missing Value Source: NWS Daily Summary

Daily Weather History Graph

Daily Weather History Graph

Search for Another Location

Airport:

Trip Planner

Search our weather history database for the weather conditions in past years. The results will help you decide how hot, cold, wet, or windy it might be!

Date:

Astronomy

Feb. 13, 2013 Rise Set
Actual Time 6:52 AM CST 5:49 PM CST
Civil Twilight 6:27 AM CST 6:15 PM CST
Nautical Twilight 5:58 AM CST 6:44 PM CST
Astronomical Twilight 5:29 AM CST 7:13 PM CST
Moon 8:35 AM CST 9:37 PM CST
Length of Visible Light 11h 48m
Length of Day
10h 56m
Waxing Crescent, 14% of the Moon is Illuminated
Feb 13
Waxing Crescent
Feb 17
First Quarter
Feb 25
Full
Mar 4
Last Quarter
Mar 11
New

Hourly Weather History & Observations

Time (CST) Temp. Windchill Dew Point Humidity Pressure Visibility Wind Dir Wind Speed Gust Speed Precip Events Conditions
12:53 AM 44.1 °F 40.8 °F 43.0 °F 96% 29.84 in 4.0 mi WNW 5.8 mph - N/A   Overcast
1:48 AM 44.6 °F 40.7 °F 42.8 °F 93% 29.84 in 6.0 mi WNW 6.9 mph - N/A   Overcast
1:53 AM 44.1 °F 40.8 °F 42.1 °F 93% 29.85 in 7.0 mi WNW 5.8 mph - N/A   Overcast
2:18 AM 44.6 °F 40.7 °F 42.8 °F 93% 29.85 in 6.0 mi WNW 6.9 mph - N/A   Overcast
2:53 AM 44.1 °F 39.0 °F 42.1 °F 93% 29.86 in 9.0 mi WNW 9.2 mph - N/A   Overcast
3:42 AM 44.6 °F 40.7 °F 41.0 °F 87% 29.88 in 10.0 mi NW 6.9 mph - N/A   Overcast
3:53 AM 44.1 °F 40.1 °F 41.0 °F 89% 29.89 in 10.0 mi NW 6.9 mph - N/A   Overcast
4:53 AM 44.1 °F 40.8 °F 41.0 °F 89% 29.91 in 10.0 mi NNW 5.8 mph - N/A   Overcast
5:53 AM 43.0 °F 39.5 °F 39.9 °F 89% 29.95 in 10.0 mi NW 5.8 mph - N/A   Overcast
6:05 AM 42.8 °F 40.1 °F 39.2 °F 87% 29.95 in 10.0 mi NNW 4.6 mph - N/A   Overcast
6:53 AM 42.1 °F 39.2 °F 37.9 °F 85% 29.98 in 10.0 mi NW 4.6 mph - N/A   Overcast
7:19 AM 42.8 °F 38.6 °F 37.4 °F 81% 29.98 in 10.0 mi NW 6.9 mph - N/A   Overcast
7:37 AM 42.8 °F 39.3 °F 37.4 °F 81% 29.99 in 10.0 mi NW 5.8 mph - N/A   Overcast
7:53 AM 42.1 °F 39.2 °F 37.0 °F 82% 30.00 in 10.0 mi Variable 4.6 mph - N/A   Overcast
8:27 AM 42.8 °F 39.3 °F 37.4 °F 81% 30.01 in 10.0 mi WNW 5.8 mph - N/A   Overcast
8:37 AM 42.8 °F 39.3 °F 37.4 °F 81% 30.02 in 10.0 mi WNW 5.8 mph - N/A   Overcast
8:53 AM 42.1 °F 37.1 °F 37.9 °F 85% 30.03 in 10.0 mi WNW 8.1 mph - N/A   Overcast
9:53 AM 42.1 °F 36.6 °F 37.0 °F 82% 30.06 in 10.0 mi WNW 9.2 mph - N/A   Overcast
10:53 AM 44.1 °F 38.1 °F 37.9 °F 79% 30.08 in 10.0 mi WNW 11.5 mph - N/A   Overcast
11:53 AM 46.0 °F 41.9 °F 37.0 °F 71% 30.06 in 10.0 mi WNW 8.1 mph - N/A   Overcast
12:16 PM 48.2 °F - 39.2 °F 71% 30.04 in 10.0 mi West 6.9 mph - N/A   Mostly Cloudy
12:23 PM 48.2 °F - 37.4 °F 66% 30.04 in 10.0 mi West 9.2 mph - N/A   Mostly Cloudy
12:30 PM 48.2 °F - 35.6 °F 62% 30.04 in 10.0 mi NW 9.2 mph - N/A   Mostly Cloudy
12:53 PM 48.9 °F - 37.9 °F 66% 30.03 in 10.0 mi North 5.8 mph - N/A   Overcast
1:23 PM 48.2 °F - 37.4 °F 66% 30.02 in 10.0 mi West 6.9 mph - N/A   Overcast
1:31 PM 48.2 °F - 37.4 °F 66% 30.02 in 10.0 mi WNW 8.1 mph - N/A   Overcast
1:53 PM 50.0 °F - 37.0 °F 61% 30.01 in 10.0 mi NW 8.1 mph - N/A   Overcast
2:53 PM 52.0 °F - 37.9 °F 59% 30.00 in 10.0 mi Variable 6.9 mph - N/A   Mostly Cloudy
3:53 PM 51.1 °F - 37.0 °F 59% 30.00 in 10.0 mi WNW 8.1 mph - N/A   Overcast
4:53 PM 50.0 °F - 37.0 °F 61% 30.01 in 10.0 mi West 8.1 mph - N/A   Overcast
5:53 PM 48.0 °F - 36.0 °F 63% 30.02 in 10.0 mi Calm Calm - N/A   Clear
6:53 PM 46.0 °F 44.8 °F 37.9 °F 73% 30.03 in 10.0 mi SW 3.5 mph - 0.00 in   Overcast
7:53 PM 42.1 °F - 37.0 °F 82% 30.04 in 10.0 mi Calm Calm - 0.00 in Rain Light Rain
8:53 PM 41.0 °F 38.0 °F 37.0 °F 86% 30.05 in 10.0 mi SW 4.6 mph - 0.00 in   Clear
9:53 PM 37.0 °F 34.5 °F 35.1 °F 93% 30.06 in 10.0 mi WSW 3.5 mph - N/A   Clear
10:53 PM 42.1 °F 38.4 °F 37.0 °F 82% 30.07 in 10.0 mi WSW 5.8 mph - N/A   Clear
11:53 PM 41.0 °F 37.1 °F 36.0 °F 82% 30.07 in 10.0 mi WSW 5.8 mph - N/A   Clear